Location: Unspecified
(8.4670°N, 0.0000°E)
Time: 08:08:07
(UTC+00:00)

ISS - Visible Passes

Search period start: 21 April 2019 00:00
Search period end: 01 May 2019 00:00
Orbit: 408 x 410 km, 51.6° (Epoch: 21 April)

Date Brightness Start Highest point End Pass type
(mag) Time Alt. Az. Time Alt. Az. Time Alt. Az.
22 Apr -3.9 05:07:42 11° SW 05:10:48 71° NW 05:14:04 10° NNE visible
23 Apr -2.7 04:19:48 37° SE 04:20:05 38° SE 04:23:10 10° NE visible
24 Apr -1.9 05:04:34 14° WNW 05:05:44 16° NW 05:07:55 10° N visible
25 Apr -2.0 04:16:24 24° N 04:16:24 24° N 04:18:02 10° NNE visible
